KUIPER-00286

导读

**KUIPER-00286(NORAD编号68590)**是美国亚马逊“柯伊伯计划”(Project Kuiper)星座中的一颗互联网通信卫星,属于亚马逊打造的近地轨道卫星互联网星座组网卫星之一。该卫星旨在构建覆盖全球的低延迟宽带卫星互联网服务,与SpaceX星链系统形成市场竞争,推动全球卫星通信产业发展。作为柯伊伯星座批量发射组网的卫星之一,它运行在近地轨道,目前状态为在轨,是亚马逊实现数千颗卫星星座部署计划的组成部分,助力填补全球互联网覆盖盲区,满足偏远地区网络接入需求。

基本信息
目录编号:
68590
目录名称:
KUIPER-00286
国际标识:
2026-072T
轨道中心:
EARTH
卫星名称:
KUIPER-00286
卫星全名:
KUIPER-00286
卫星状态:
在轨 (已飞行70 天)
发射日期:
2026-04-04 UTC
国别 :
美国 (US)
星等 :
--
轨道信息
数据来源 国际轨道数据
星历时间: 2026-06-12T15:25:16+0800
16小时前
查看轨道信息
半长轴: 6831.567km
偏心率: 0.0005446
轨道倾角: 51.871°
近地点辐角 351.417°
升交点赤经 200.240°
平近点角 8.673°
近地点: 449.709km
远地点: 457.151km
周期: 93.657分钟
每日圈数: 15.375253
详细信息
使用方式:
暂无
2D轨道图
3D轨道图
轨道高度分析图
轨道倾角分析图
轨道综合分析图
查看轨道综合分析图